DW2649 Weather Reports


time (UTC)temp
C
wind
direction
speed
KPH
gust
KPH
rain 1hr
cm
rain 24hr
cm
rain mn
cm
humidity
%
barometer
mb
20260509014600 23 178 3.2 11.3 0.00 0.00 0.00 25 1013.4
20260509013109 24 191 3.2 9.7 0.00 0.00 0.00 23 1013.6
20260509011600 25 162 4.8 12.9 0.00 0.00 0.00 22 1013.6
20260509010059 25 242 4.8 14.5 0.00 0.00 0.00 23 1013.7
20260509004600 26 207 4.8 11.3 0.00 0.00 0.00 23 1013.9
20260509003100 26 298 4.8 12.9 0.00 0.00 0.00 23 1014.0
20260509001558 26 246 0.0 9.7 0.00 0.00 0.00 22 1014.1
20260509000115 25 230 9.7 17.7 0.00 0.00 0.00 23 1014.2
20260508234558 26 288 6.4 14.5 0.00 0.00 0.00 22 1014.5
20260508233113 26 321 4.8 12.9 0.00 0.00 0.00 23 1014.5
20260508231559 26 284 8.0 14.5 0.00 0.00 0.00 23 1014.7
20260508230100 26 136 3.2 14.5 0.00 0.00 0.00 22 1014.7
20260508224558 26 285 1.6 12.9 0.00 0.00 0.00 25 1014.9
20260508223057 25 319 6.4 20.9 0.00 0.00 0.00 25 1015.3
20260508221608 25 306 3.2 19.3 0.00 0.00 0.00 25 1015.4
20260508220112 25 299 3.2 16.1 0.00 0.00 0.00 23 1015.9
20260508214609 25 15 8.0 17.7 0.00 0.00 0.00 26 1015.9
20260508213111 25 296 8.0 17.7 0.00 0.00 0.00 23 1016.2
20260508211607 25 349 3.2 16.1 0.00 0.00 0.00 26 1016.2
20260508204601 24 301 6.4 17.7 0.00 0.00 0.00 26 1016.6
20260508203110 24 267 6.4 19.3 0.00 0.00 0.00 30 1016.8
20260508201558 23 246 8.0 20.9 0.00 0.00 0.00 29 1017.0
20260508200112 23 277 8.0 16.1 0.00 0.00 0.00 32 1017.0
20260508194602 23 343 6.4 17.7 0.00 0.00 0.00 32 1017.0
20260508193150 23 293 4.8 19.3 0.00 0.00 0.00 36 1017.1
20260508191602 22 233 9.7 22.5 0.00 0.00 0.00 34 1017.1
20260508190059 22 227 8.0 19.3 0.00 0.00 0.00 32 1017.2
20260508184607 22 234 6.4 17.7 0.00 0.00 0.00 36 1017.2
20260508183125 22 262 9.7 17.7 0.00 0.00 0.00 35 1017.4
20260508181607 22 319 4.8 17.7 0.00 0.00 0.00 37 1017.5
20260508180057 21 260 3.2 12.9 0.00 0.00 0.00 36 1017.6
20260508174604 21 273 4.8 16.1 0.00 0.00 0.00 39 1017.5
20260508173059 21 266 4.8 11.3 0.00 0.00 0.00 40 1017.6
20260508171559 20 222 4.8 17.7 0.00 0.00 0.00 38 1017.7
20260508170100 20 244 8.0 16.1 0.00 0.00 0.00 42 1017.7
20260508164559 20 284 6.4 14.5 0.00 0.00 0.00 46 1017.6
20260508163056 20 258 4.8 12.9 0.00 0.00 0.00 51 1017.4
20260508161557 20 284 3.2 9.7 0.00 0.00 0.00 51 1017.4
20260508160100 19 201 4.8 11.3 0.00 0.00 0.00 51 1017.4
20260508154622 18 221 1.6 8.0 0.00 0.00 0.00 50 1017.4
20260508153100 18 173 0.0 3.2 0.00 0.00 0.00 53 1017.3
20260508151600 17 173 1.6 4.8 0.00 0.00 0.00 53 1017.3
20260508150058 17 0 0.0 4.8 0.00 0.00 0.00 54 1017.3
20260508144609 16 173 1.6 8.0 0.00 0.00 0.00 53 1017.1
20260508143106 15 163 3.2 8.0 0.00 0.00 0.00 52 1017.0
20260508141605 14 0 1.6 4.8 0.00 0.00 0.00 55 1017.1
20260508140056 12 177 0.0 3.2 0.00 0.00 0.00 57 1016.9
20260508134622 11 67 0.0 4.8 0.00 0.00 0.00 63 1016.8
20260508133102 9 0 0.0 0.0 0.00 0.00 0.00 66 1016.6
20260508131608 8 0 0.0 3.2 0.00 0.00 0.00 66 1016.5
20260508130100 8 67 0.0 4.8 0.00 0.00 0.00 66 1016.3
20260508124605 8 71 3.2 6.4 0.00 0.00 0.00 66 1016.1
20260508123100 8 96 1.6 4.8 0.00 0.00 0.00 66 1016.0
20260508121557 8 0 1.6 6.4 0.00 0.00 0.00 65 1015.9
20260508120059 8 96 3.2 6.4 0.00 0.00 0.00 65 1015.7
20260508114603 8 96 3.2 4.8 0.00 0.00 0.00 65 1015.4
20260508113059 8 96 1.6 4.8 0.00 0.00 0.00 64 1015.5
20260508111557 8 96 3.2 6.4 0.00 0.00 0.00 64 1015.3
20260508110114 8 96 3.2 6.4 0.00 0.00 0.00 65 1015.3
20260508104601 8 0 3.2 4.8 0.00 0.00 0.00 65 1015.3
20260508103101 8 96 1.6 4.8 0.00 0.00 0.00 66 1015.2
20260508101559 8 90 1.6 6.4 0.00 0.00 0.00 68 1015.1
20260508100112 8 180 1.6 4.8 0.00 0.00 0.00 69 1015.2
20260508094608 8 180 1.6 4.8 0.00 0.00 0.00 69 1015.1
20260508093107 8 0 0.0 3.2 0.00 0.00 0.00 67 1015.2
20260508091607 9 0 0.0 3.2 0.00 0.00 0.00 65 1015.2
20260508090115 10 0 1.6 3.2 0.00 0.00 0.00 64 1015.1
20260508084605 10 180 0.0 6.4 0.00 0.00 0.00 64 1015.1
20260508083100 9 5 0.0 3.2 0.00 0.00 0.00 64 1015.0
20260508081608 10 5 0.0 4.8 0.00 0.00 0.00 63 1015.0
20260508080101 10 63 1.6 6.4 0.00 0.00 0.00 61 1015.1
20260508074558 10 48 1.6 4.8 0.00 0.00 0.00 61 1015.0
20260508073109 10 33 1.6 4.8 0.00 0.00 0.00 60 1014.9
20260508071607 10 33 1.6 6.4 0.00 0.00 0.00 59 1015.0
20260508064617 11 341 1.6 4.8 0.00 0.00 0.00 60 1014.8
20260508063109 11 341 3.2 4.8 0.00 0.00 0.00 60 1014.7
20260508061609 12 341 0.0 3.2 0.00 0.00 0.00 58 1014.5
20260508060111 12 0 0.0 3.2 0.00 0.00 0.00 56 1014.6
20260508054558 13 341 3.2 6.4 0.00 0.00 0.00 55 1014.7
20260508053101 12 229 1.6 6.4 0.00 0.00 0.00 53 1014.5
20260508051612 13 28 1.6 6.4 0.00 0.00 0.00 52 1014.4
20260508050058 13 26 3.2 8.0 0.00 0.00 0.00 52 1014.3
20260508044558 13 44 1.6 4.8 0.00 0.00 0.00 54 1014.1
20260508043059 13 180 0.0 3.2 0.00 0.00 0.00 53 1014.1
20260508041601 14 180 1.6 4.8 0.00 0.00 0.00 50 1014.1
20260508040100 15 180 3.2 4.8 0.00 0.00 0.00 49 1014.0
20260508034558 15 0 0.0 0.0 0.00 0.00 0.00 47 1014.0
20260508033102 16 0 0.0 0.0 0.00 0.00 0.00 45 1013.7
20260508031600 16 0 0.0 0.0 0.00 0.00 0.00 43 1013.7
20260508030103 17 180 1.6 4.8 0.00 0.00 0.00 40 1013.6
20260508024619 19 0 1.6 3.2 0.00 0.00 0.00 37 1013.5
20260508023058 21 314 0.0 1.6 0.00 0.00 0.00 34 1013.5
20260508021606 22 314 1.6 4.8 0.00 0.00 0.00 30 1013.3
20260508020109 23 332 1.6 4.8 0.00 0.00 0.00 29 1013.4